Location: Newark
(49.3808°N, 3.1844°E)
Time: 15:27:18
(UTC+00:00)

Vanguard 1 Rocket - Pass Details

Date: 22 November 2019
Orbit: 650 x 4226 km, 34.3° (Epoch: 14 December)

Event Time Altitude Azimuth Distance (km) Brightness Sun altitude
Rises 05:29:10 0° 243° (WSW) 2,964 - -15.7°
Exits shadow 05:31:18 - 226° (SW) 2,383 9.2 -15.4°
Reaches altitude 10° 05:32:30 10° 214° (SSW) 2,174 9.1 -15.2°
Maximum altitude 05:34:46 13° 185° (S) 2,112 9.4 -14.9°
Drops below altitude 10° 05:37:21 10° 157° (SSE) 2,560 10.2 -14.5°
Sets 05:42:04 0° 132° (SE) 4,051 11.9 -13.7°
